Network for Lightning and Thunderstorms in Real Time - Real time lightning map
Regions/Countries: current only
List of Stations for "-" sorted ascending by Country
(Country = Country in that the station is located (assigned by the user))
StationCityCommentCountryRegionsStatusLast signalTotalValidInvolvedUsedClosestFarthest
2648MaroubraAustralia / New South WalesAfrica 1Running2022-07-06 00:514530753110 km9290 km
2648MaroubraAustralia / New South WalesEurope 2Running2022-07-06 00:53451974917015275 km17038 km
2648MaroubraAustralia / New South WalesEurope 3Running2022-07-06 00:53451974913015400 km16831 km
2892Sanctuary PointAustralia / New South WalesOceania 1Running2022-07-06 00:476327143371424 km2449 km
2896Kembla GrangeAustralia / New South WalesOceania 1Running2022-07-06 00:5111818405414 km127 km
966Darwin - Alawa200mm ferrites to test, was 30...Australia / Northern TerritoryOceania 1Running2022-07-06 00:5053952444411073 km1941 km
2281Darwin - AnulaAustralia / Northern TerritoryOceania 1Running2022-07-06 00:512248872118991529 km5047 km
886Moffat Beach, Sunshine CoastAustralia / QueenslandEurope 1Running2022-07-06 00:4913577000 km0 km
886Moffat Beach, Sunshine CoastAustralia / QueenslandOceania 1Running2022-07-06 00:4913577651020 km1205 km
886Moffat Beach, Sunshine CoastAustralia / QueenslandAsia 1Running2022-07-06 00:4913577424626 km5293 km
886Moffat Beach, Sunshine CoastAustralia / QueenslandSouth America 1Running2022-07-06 00:4913577220 km11446 km
886Moffat Beach, Sunshine CoastAustralia / QueenslandAfrica 1Running2022-07-06 00:4913577220 km9685 km
886Moffat Beach, Sunshine CoastAustralia / QueenslandJapan 1Running2022-07-06 00:491357720102201 km5478 km
886Moffat Beach, Sunshine CoastAustralia / QueenslandEurope 2Running2022-07-06 00:49135777014332 km16641 km
886Moffat Beach, Sunshine CoastAustralia / QueenslandEurope 3Running2022-07-06 00:491357726014080 km16641 km
1263Dutton Park, Brisbane300mm loops (x 44 turns)Australia / QueenslandOceania 1Running2022-07-06 00:486841346050772 km1717 km
1363Brisbane Nth 2System RED H Field only 2m loo...Australia / QueenslandOceania 1Interference2022-07-05 21:37311222266 km5000 km
1399Brisbane Nth 1System RED H Field only 2m loo...Australia / QueenslandOceania 1Interference2022-07-06 00:45379829641513766 km1711 km
1527CranbrookAustralia / QueenslandOceania 1Running2022-07-06 00:5026692139150113611 km4907 km
1593CabooltureHome sweet homeAustralia / QueenslandOceania 1Running2022-07-06 00:5011032101194730784 km5420 km
1631CarinaCu pipe loop & Toroid CouplerAustralia / QueenslandOceania 1Running2022-07-06 00:50104399112491765 km3934 km
1695BundabergSystem Blue. 38cm loopAustralia / QueenslandOceania 1Running2022-07-06 00:501251233017799 km1418 km
2201Mt CottonVK4RDB Repeater SiteAustralia / QueenslandOceania 1Offline2022-05-15 21:52000024000 km0 km
2332Chapel Hill,Using mag field only - 3 ortho...Australia / QueenslandEurope 1Running2022-07-06 00:4816741271000 km0 km
2332Chapel Hill,Using mag field only - 3 ortho...Australia / QueenslandOceania 1Running2022-07-06 00:501647125010026780 km5464 km
2332Chapel Hill,Using mag field only - 3 ortho...Australia / QueenslandAsia 1Running2022-07-06 00:5116411246415176 km5416 km
2332Chapel Hill,Using mag field only - 3 ortho...Australia / QueenslandSouth America 1Running2022-07-06 00:5116411246110 km11791 km
2332Chapel Hill,Using mag field only - 3 ortho...Australia / QueenslandAfrica 1Running2022-07-06 00:5116411246210 km9629 km
2332Chapel Hill,Using mag field only - 3 ortho...Australia / QueenslandJapan 1Running2022-07-06 00:5116411246205398 km5412 km
2332Chapel Hill,Using mag field only - 3 ortho...Australia / QueenslandEurope 2Running2022-07-06 00:511641124610013655 km15571 km
2332Chapel Hill,Using mag field only - 3 ortho...Australia / QueenslandEurope 3Running2022-07-06 00:51164112469013655 km15570 km
2359Moorooka, BrisbaneSystem Blue, E and 3 orthogon...Australia / QueenslandOceania 1Running2022-07-06 00:5041224521611772 km1659 km
2359Moorooka, BrisbaneSystem Blue, E and 3 orthogon...Australia / QueenslandAsia 1Running2022-07-06 00:51406145120132738 km5052 km
2451Wavell HeightsAustralia / QueenslandOceania 1Running2022-07-06 00:482571814330766 km1707 km
2451Wavell HeightsAustralia / QueenslandAsia 1Running2022-07-06 00:51251176215250 km5301 km
2662Excelsior Park, Morayfield, Br...3x200mmx15mm Ferrite Rod + 150...Australia / QueenslandOceania 1Running2022-07-06 00:51250114929860769 km5366 km
2662Excelsior Park, Morayfield, Br...3x200mmx15mm Ferrite Rod + 150...Australia / QueenslandAsia 1Running2022-07-06 00:5125161503625136 km5376 km
1015Lyrup, South Australia300mm ferrite Hfield/800mm Efi...Australia / South AustraliaOceania 1Running2022-07-06 00:502590312142162148 km4270 km
1016Paringa, South Australia300mm ferrite Hfield/200mm Efi...Australia / South AustraliaOceania 1Running2022-07-06 00:504331785842341 km2580 km
1248RidgehavenRed E200mm onlyAustralia / South AustraliaOceania 1Running2022-07-06 00:5053394995198952336 km4370 km
1694Salisbury, South Australia3 x 200mm Ferrite + 300mm E. F...Australia / South AustraliaOceania 1Running2022-07-06 00:5070121721139692340 km4378 km
2105Port LincolnAustralia / South AustraliaOceania 1Idle2022-07-05 22:3296665 km39 km
2175IronbankAustralia / South AustraliaOceania 1Running2022-07-06 00:4977993245115582350 km3022 km
2349Mil-LelTesting H FieldAustralia / South AustraliaEurope 1Running2022-07-06 00:501102610244000 km0 km
2349Mil-LelTesting H FieldAustralia / South AustraliaOceania 1Running2022-07-06 00:5110983102011722340 km4019 km
2349Mil-LelTesting H FieldAustralia / South AustraliaAsia 1Running2022-07-06 00:5111027102451273448 km5003 km
2349Mil-LelTesting H FieldAustralia / South AustraliaSouth America 1Running2022-07-06 00:511104810266110 km9971 km
2349Mil-LelTesting H FieldAustralia / South AustraliaAfrica 1Running2022-07-06 00:521098110200000 km0 km
2353WhyallaMostly relying on e field ante...Australia / South AustraliaEurope 1Running2022-07-06 00:4934412054220 km9042 km
2353WhyallaMostly relying on e field ante...Australia / South AustraliaOceania 1Running2022-07-06 00:503424206751131864 km5152 km
2353WhyallaMostly relying on e field ante...Australia / South AustraliaAsia 1Running2022-07-06 00:5034242068993034 km5472 km
2353WhyallaMostly relying on e field ante...Australia / South AustraliaSouth America 1Running2022-07-06 00:5034242068000 km0 km
2353WhyallaMostly relying on e field ante...Australia / South AustraliaAfrica 1Running2022-07-06 00:5034242068430 km9406 km
2353WhyallaMostly relying on e field ante...Australia / South AustraliaJapan 1Running2022-07-06 00:5034242067553578 km6187 km
2438Athelstone (IADELA729)2 x 200mm Ferrite, 200mm E-fie...Australia / South AustraliaOceania 1Running2022-07-06 00:5095434164158552340 km4368 km
2667Para Hills WestBack To Testing StageAustralia / South AustraliaOceania 1Running2022-07-06 00:5014002181021240 km4105 km
2953StrathalbynSHR/Hallett/CFS SBYN-02Australia / South AustraliaOceania 1Offline2022-07-05 11:25000024000 km0 km
972KingstonTrialing AntennasAustralia / TasmaniaOceania 1Running2022-07-06 00:50447348163372256 km3901 km
1833KingstonLoops N-S and E-WAustralia / TasmaniaOceania 1Running2022-07-06 00:50128761007716472256 km3895 km
2048StowportBlue 19.4, 2x 200mm ferrite, 1...Australia / TasmaniaOceania 1Running2022-07-06 00:501102611020105382179 km3452 km
2050Sandy BayU of Tas Environmental Change ...Australia / TasmaniaOceania 1Bad GPS2022-03-14 02:36000024000 km0 km
2064OrfordAustralia / TasmaniaOceania 1Running2022-07-06 00:5064366244116352187 km3855 km
2121CradocLoop AntennaAustralia / TasmaniaOceania 1Running2022-07-06 00:48268198137312279 km3402 km
849Corryong, VicAustralia / VictoriaOceania 1Running2022-07-06 00:492536747351691 km3620 km
919AcheronOnlineAustralia / VictoriaOceania 1Running2022-07-06 00:50588953361391041919 km3702 km
1323SilvanAntenna approx 4m above groundAustralia / VictoriaOceania 1Running2022-07-06 00:50126851010101976 km2783 km
1613PortarlingtonSystem blue. 100mm E-fieldAustralia / VictoriaOceania 1Running2022-07-06 00:41110105105222049 km3725 km
1679BallaratE-field built-in, and now grou...Australia / VictoriaOceania 1Bad GPS2022-01-17 08:10000024000 km0 km
1890StawellAustralia / VictoriaOceania 1Running2022-07-06 00:48180175130802125 km3929 km
2066MordiallocAustralia / VictoriaOceania 1Offline2022-05-13 13:54000024000 km0 km
2081DromanaNew setup, indoors for testingAustralia / VictoriaOceania 1Running2022-07-06 00:503225107393382042 km3689 km
2090EnsayAustralia / VictoriaOceania 1Running2022-07-06 00:50604230517110 km2850 km
2098Neerim EastAustralia / VictoriaOceania 1Interference2022-07-06 00:494748405542131943 km3639 km
2118BlackburnSystem Blue 19.4, H two 20cm F...Australia / VictoriaOceania 1Running2022-07-06 00:5010417321661161995 km3707 km
2120Keilor ParkSystem Blue. 2x 20cm ferrites....Australia / VictoriaOceania 1Running2022-07-06 00:495074641871162010 km3737 km
2139Croydon SouthV9.2 Blue, clean site, quiet P...Australia / VictoriaOceania 1Idle2022-07-06 00:497015291711371985 km3699 km
2167HeathmontAustralia / VictoriaOceania 1Running2022-07-06 00:321225946181990 km3700 km
2167HeathmontAustralia / VictoriaSouth America 1Running2022-07-06 00:3212259110 km8366 km
2167HeathmontAustralia / VictoriaAfrica 1Running2022-07-06 00:3212259220 km9535 km
2391HeathcoteV9.2 Blue, Leon Mow Radio Obse...Australia / VictoriaOceania 1Running2022-07-06 00:51441937181951321968 km3809 km
2553St Andrews BeachBlue - Ferrite RodsAustralia / VictoriaOceania 1Offline2022-06-25 20:47000024000 km0 km
844RockinghamRebirth (temporary)Australia / Western AustraliaOceania 1Running2022-07-06 00:5042462733529 km4392 km
973Willetton, PerthAustralia / Western AustraliaOceania 1Running2022-07-06 00:504712491023946 km4744 km
2418Morley, PerthAustralia / Western AustraliaOceania 1Running2022-07-06 00:50454812594593936 km4932 km
247Wiener NeustadtAustriaEurope 1Offline2022-06-13 11:07000024000 km0 km
247Wiener NeustadtAustriaSouth America 1Offline2022-06-13 11:07000024000 km0 km
247Wiener NeustadtAustriaAfrica 1Offline2022-06-13 11:07000024000 km0 km
255DoblAustriaEurope 1Running2022-07-06 00:4212122137 km51 km
265DesselbrunnAustriaEurope 1Offline2022-06-29 11:38000024000 km0 km
297Feistritz / DrauAustriaEurope 1Running2022-07-06 00:48185185128135 km226 km
324GrazAustriaEurope 1Running2022-07-06 00:48181885144 km720 km
404GuntramsdorfAustriaEurope 1Running2022-07-06 00:492818281860869382 km3373 km
468StockerauAustriaEurope 1Running2022-07-06 00:48114114162402 km512 km
708Ybbs an der DonauAustriaEurope 1Offline2021-12-18 12:45000024000 km0 km
708Ybbs an der DonauAustriaEurope 2Offline2021-12-18 12:45000024000 km0 km
708Ybbs an der DonauAustriaEurope 3Offline2021-12-18 12:45000024000 km0 km
730Steinbrunn SeeAustriaEurope 1Running2022-07-06 00:4929046198650404 km748 km
730Steinbrunn SeeAustriaEurope 2Running2022-07-06 00:5328700196012589 km769 km
730Steinbrunn SeeAustriaEurope 3Running2022-07-06 00:5328710196112589 km769 km
754DornbirnSystem RED - OE9PGVAustriaEurope 1Running2022-07-06 00:4978414385731209150 km4736 km
Select your menu language
češtinadanskdeutschελληνικάenglishespañolsuomeksifrançaismagyaritaliano日本語latviskinederlandsenorskмакедонскиpolskiрусскийсрпскиsvenskatürkукраїнський
If your language is not supported and if you want to adapt the menu language, then write an email to info ☺ blitzortung.org.